Weather reports worldwide

Advertisment
Chambery/Aix-Les-Bains, France (7491): temperature & dewpoint: 06.12.2018 00:00:00 - 12.12.2018 00:00:00 (CET)Chambery/Aix-Les-Bains, France (7491): temperature 5cm: 06.12.2018 00:00:00 - 12.12.2018 00:00:00 (CET)Chambery/Aix-Les-Bains, France (7491): temperature -20cm & temperature -100cm: 06.12.2018 00:00:00 - 12.12.2018 00:00:00 (CET)Chambery/Aix-Les-Bains, France (7491): wind speed & gusts: 06.12.2018 00:00:00 - 12.12.2018 00:00:00 (CET)Chambery/Aix-Les-Bains, France (7491): wind direction: 06.12.2018 00:00:00 - 12.12.2018 00:00:00 (CET)Chambery/Aix-Les-Bains, France (7491): reduced air pressure: 06.12.2018 00:00:00 - 12.12.2018 00:00:00 (CET)Chambery/Aix-Les-Bains, France (7491): visibility: 06.12.2018 00:00:00 - 12.12.2018 00:00:00 (CET)Chambery/Aix-Les-Bains, France (7491): sunshine duration: 06.12.2018 00:00:00 - 12.12.2018 00:00:00 (CET)Chambery/Aix-Les-Bains, France (7491): precipitation: 06.12.2018 00:00:00 - 12.12.2018 00:00:00 (CET)
Date & Time tt [°C] td [°C] tt 5cm [°C] tt -20cm [°C] tt -100cm [°C] ff [km/h] ff [kn] fx [km/h] fx [kn] dd ppp [hPa] vv [km] sd [min] rr [mm]
12.12.2018 00:00:00 -1,1 -2,1 2,2 8,9 10,9 9 5 11 6 SSE 1024,4 11 0 0,0
11.12.2018 23:00:00 1,7 -1,0 2,1 8,9 10,9 4 2 19 10 SW 1023,9 16 0 0,0
11.12.2018 22:00:00 2,8 -1,2 2,2 9,0 11,0 9 5 21 11 NNE 1023,5 16 0 0,0
11.12.2018 21:00:00 3,6 0,3 2,8 9,0 11,0 8 5 24 13 NNW 1023,3 19 0 0,0
11.12.2018 20:00:00 3,4 0,6 3,6 9,0 11,0 5 3 13 7 NNW 1023,3 19 0 0,0
11.12.2018 19:00:00 3,9 0,8 4,2 9,0 11,0 7 4 14 8 WNW 1023,1 19 0 0,0
11.12.2018 18:00:00 5,4 0,9 4,2 9,0 10,9 6 4 21 11 NW 1023,1 19 0 0,0
11.12.2018 17:00:00 5,7 0,8 5,4 9,0 11,0 7 4 14 8 N 1023,1 16 5 0,0
11.12.2018 16:00:00 7,6 1,0 6,7 9,0 11,0 5 3 24 13 NW 1023,1 60 30 0,0
11.12.2018 15:00:00 8,6 1,9 7,1 8,9 11,0 14 8 21 11 N 1023,1 19 54 0,0
11.12.2018 14:00:00 8,6 2,8 7,7 8,9 11,0 10 5 16 9 N 1023,4 19 60 0,0
11.12.2018 13:00:00 7,6 3,4 7,2 8,9 10,9 7 4 11 6 N 1024,1 18 58 0,0
11.12.2018 12:00:00 6,0 3,5 6,0 8,9 11,0 5 3 11 6 NW 1024,8 15 56 0,0
11.12.2018 11:00:00 4,2 3,2 4,8 8,9 11,0 4 2 9 5 N 1025,6 10 24 0,0
11.12.2018 10:00:00 3,3 2,7 4,2 9,0 11,0 5 3 10 5 E 1025,9 6 0 0,0
11.12.2018 09:00:00 2,9 2,6 4,1 9,0 11,0 7 4 13 7 ENE 1025,9 6 0 0,0
11.12.2018 08:00:00 3,7 3,3 4,5 9,0 11,0 6 4 17 9 NW 1025,8 5 0 0,0
11.12.2018 07:00:00 3,8 3,2 4,4 9,1 11,0 10 5 26 14 NNW 1025,8 12 0 0,0
11.12.2018 06:00:00 4,2 3,9 4,1 9,1 11,0 15 8 22 12 NNE 1026,2 12 0 0,0
11.12.2018 05:00:00 2,7 2,6 4,4 9,1 11,0 5 3 8 4 S 1026,6 0,3 0 0,0
11.12.2018 04:00:00 3,7 3,4 4,9 9,1 11,0 0 0 5 3 N 1026,7 1,3 0 0,0
11.12.2018 03:00:00 3,9 3,6 5,5 9,2 11,0 4 2 10 5 S 1027,0 0,6 0 0,0
11.12.2018 02:00:00 4,8 4,5 6,0 9,2 11,0 0 0 4 2 N 1027,3 3,2 0 0,0
11.12.2018 01:00:00 4,9 4,6 6,4 9,2 11,0 4 2 6 3 S 1027,6 2,5 0 0,0
11.12.2018 00:00:00 5,3 4,7 6,7 9,2 11,0 2 1 8 4 WSW 1028,0 8 0 0,0
10.12.2018 23:00:00 5,6 5,2 6,6 9,2 11,0 3 1 6 4 SW 1028,2 6 0 0,0
10.12.2018 22:00:00 5,8 5,4 6,8 9,2 11,0 4 2 8 5 WSW 1028,2 11 0 0,0
10.12.2018 21:00:00 5,8 5,4 6,6 9,2 11,0 4 2 8 4 E 1028,7 7 0 0,0
10.12.2018 20:00:00 5,8 5,5 6,3 9,2 11,0 3 2 7 4 ESE 1028,8 8 0 0,0
10.12.2018 19:00:00 5,9 5,2 7,2 9,2 11,0 6 3 7 4 S 1028,7 12 0 0,4
10.12.2018 18:00:00 6,7 5,6 7,7 9,1 11,0 2 1 8 4 WNW 1028,4 7 0 0,2
10.12.2018 17:00:00 7,0 5,3 8,1 9,1 11,0 6 3 10 5 SSE 1028,3 20 13 0,2
10.12.2018 16:00:00 8,3 4,9 8,4 9,1 11,0 2 1 8 4 SW 1028,0 12 0 0,0
10.12.2018 15:00:00 8,4 4,8 8,4 9,1 11,0 5 3 12 6 SW 1028,0 19 0 0,0
10.12.2018 14:00:00 8,4 4,6 7,5 9,1 11,1 8 4 22 12 SSW 1027,8 20 0 0,0
10.12.2018 13:00:00 8,1 4,3 7,1 9,1 11,0 13 7 30 16 E 1028,4 20 0 0,0
10.12.2018 12:00:00 7,7 5,2 7,3 9,1 11,0 7 4 13 7 E 1028,7 18 0 0,2
10.12.2018 11:00:00 7,5 4,8 6,6 9,1 11,1 5 3 13 7 ENE 1029,0 20 0 0,0
10.12.2018 10:00:00 7,3 4,8 6,3 9,1 11,1 11 6 21 11 NE 1028,7 11 0 0,2
10.12.2018 09:00:00 8,5 2,7 5,9 9,1 11,1 10 5 61 33 NNW 1027,7 13 0 0,0
10.12.2018 08:00:00 8,3 3,5 6,0 9,1 11,1 22 12 54 29 NNE 1027,3 20 0 0,0
10.12.2018 07:00:00 7,0 4,6 6,4 9,1 11,1 13 7 26 14 SSE 1026,7 20 0 0,2
10.12.2018 06:00:00 6,9 4,9 6,2 9,1 11,1 9 5 34 18 NE 1026,8 20 0 0,0
10.12.2018 05:00:00 8,5 3,3 6,1 9,2 11,1 20 11 40 22 N 1026,3 18 0 0,5
10.12.2018 04:00:00 7,8 4,0 6,0 9,1 11,1 10 5 52 28 NW 1026,1 14 0 2,8
10.12.2018 03:00:00 7,5 5,8 6,8 9,2 11,1 23 12 42 23 NE 1025,8 3,6 0 1,8
10.12.2018 02:00:00 8,0 5,6 6,8 9,2 11,1 26 14 54 29 NNE 1024,8 6 0 1,0
10.12.2018 01:00:00 9,6 5,0 6,8 9,2 11,2 15 8 52 28 NNE 1024,3 16 0 0,0
10.12.2018 00:00:00 8,1 5,2 6,7 9,2 11,2 8 4 41 22 NE 1024,7 60 0 2,8
09.12.2018 23:00:00 7,6 6,4 6,9 9,2 11,2 10 5 25 13 SSW 1024,1 2,7 0 2,4
09.12.2018 22:00:00 7,6 6,2 7,1 9,2 11,2 5 3 51 27 W 1023,2 4,2 0 2,7
09.12.2018 21:00:00 7,5 6,3 7,1 9,2 11,2 9 5 24 13 S 1022,6 3,0 0 4,0
09.12.2018 20:00:00 7,9 5,7 7,2 9,3 11,3 11 6 29 15 S 1021,8 6 0 1,4
09.12.2018 19:00:00 8,1 5,4 7,1 9,3 11,2 15 8 34 19 SSE 1021,2 7 0 0,4
09.12.2018 18:00:00 7,5 5,8 7,0 9,2 11,2 6 3 39 21 SSW 1021,4 17 0 1,0
09.12.2018 17:00:00 7,4 5,4 6,9 9,2 11,2 5 3 41 22 W 1020,7 14 0 1,6
09.12.2018 16:00:00 8,6 4,8 7,4 9,2 11,3 27 14 65 35 S 1019,9 7 0 0,2
09.12.2018 15:00:00 10,1 3,4 8,0 9,2 11,3 24 13 45 24 SSE 1019,2 17 0 0,0
09.12.2018 14:00:00 10,8 2,1 8,0 9,2 11,3 11 6 44 24 SSW 1019,9 19 24 0,0
09.12.2018 13:00:00 10,0 5,8 7,2 9,2 11,3 10 5 36 19 S 1020,1 19 8 0,6
09.12.2018 12:00:00 8,6 5,0 7,1 9,2 11,3 10 5 58 32 SE 1020,7 4,9 1 1,0
09.12.2018 11:00:00 11,3 4,3 7,5 9,2 11,3 11 6 65 35 S 1020,4 19 0 3,0
09.12.2018 10:00:00 9,0 7,1 8,1 9,2 11,3 19 11 45 25 SE 1018,3 2,2 0 1,8
09.12.2018 09:00:00 9,5 6,9 8,1 9,2 11,3 16 9 22 12 NE 1018,8 6 0 0,4
09.12.2018 08:00:00 10,0 7,1 8,0 9,1 11,3 10 5 43 23 W 1018,7 20 0 2,6
09.12.2018 07:00:00 12,3 5,0 8,5 9,2 11,3 13 7 49 26 E 1017,1 17 0 0,0
09.12.2018 06:00:00 14,0 3,7 8,0 9,1 11,3 24 13 90 49 NE 1016,4 20 0 0,2
09.12.2018 05:00:00 11,8 6,3 6,8 9,1 11,3 37 20 77 42 SE 1016,4 6 0 1,0
09.12.2018 04:00:00 7,4 4,7 6,7 9,2 11,3 25 14 44 24 S 1017,9 57 0 0,0
09.12.2018 03:00:00 7,2 4,7 6,6 9,2 11,3 29 16 48 26 S 1019,1 20 0 0,0
09.12.2018 02:00:00 7,2 4,8 6,5 9,2 11,3 29 16 48 26 S 1019,5 20 0 0,0
09.12.2018 01:00:00 6,8 4,8 6,5 9,2 11,3 33 18 52 28 S 1020,6 19 0 0,0
09.12.2018 00:00:00 6,6 4,8 6,3 9,2 11,3 19 11 43 23 SW 1021,3 17 0 0,0
08.12.2018 23:00:00 6,5 4,8 6,4 9,2 11,3 26 14 45 25 SSW 1021,9 9 0 0,2
08.12.2018 22:00:00 6,4 4,6 6,4 9,3 11,4 27 14 49 27 SSW 1022,5 16 0 0,2
08.12.2018 21:00:00 6,5 4,5 6,4 9,2 11,3 23 12 42 23 S 1023,0 8 0 0,2
08.12.2018 20:00:00 6,8 4,3 6,5 9,2 11,3 21 11 39 21 SSW 1023,2 17 0 0,2
08.12.2018 19:00:00 7,1 4,1 6,5 9,3 11,3 21 12 39 21 SSW 1023,8 18 0 0,0
08.12.2018 18:00:00 6,8 4,1 6,6 9,2 11,3 19 11 35 19 SW 1024,0 19 0 0,0
08.12.2018 17:00:00 6,8 4,3 6,7 9,2 11,3 20 11 33 18 SSW 1024,9 16 0 0,0
08.12.2018 16:00:00 7,1 4,1 6,8 9,2 11,3 21 11 32 17 S 1025,1 18 0 0,0
08.12.2018 15:00:00 7,1 4,1 6,9 9,2 11,3 14 8 35 19 SW 1025,0 18 0 0,0
08.12.2018 14:00:00 7,4 3,8 7,3 9,3 11,3 26 14 37 20 S 1025,3 18 0 0,0
08.12.2018 13:00:00 7,6 4,2 7,6 9,2 11,3 15 8 29 16 S 1025,6 18 0 0,2
08.12.2018 12:00:00 8,1 3,7 7,5 9,2 11,3 22 12 34 18 S 1025,1 20 0 0,0
08.12.2018 11:00:00 7,6 3,6 7,2 9,3 11,3 17 9 23 13 S 1025,9 19 0 0,0
08.12.2018 10:00:00 6,8 3,9 6,8 9,3 11,4 3 2 20 11 NNW 1025,8 19 0 0,0
08.12.2018 09:00:00 6,4 3,7 6,4 9,3 11,3 6 4 20 11 S 1025,4 19 0 0,0
08.12.2018 08:00:00 5,4 3,9 6,2 9,3 11,3 6 4 13 7 S 1025,3 18 0 0,0
08.12.2018 07:00:00 5,7 3,9 6,0 9,4 11,4 5 3 11 6 NE 1025,1 17 0 0,0
08.12.2018 06:00:00 5,5 3,0 5,0 9,4 11,4 5 3 11 6 SE 1024,1 19 0 0,0
08.12.2018 05:00:00 4,9 2,9 5,6 9,4 11,4 5 3 14 8 ESE 1024,6 20 0 0,0
08.12.2018 04:00:00 4,7 3,0 5,9 9,4 11,3 6 4 12 6 ESE 1024,4 20 0 0,0
08.12.2018 03:00:00 6,3 3,6 6,4 9,4 11,4 7 4 19 11 SSE 1023,7 20 0 0,0
08.12.2018 02:00:00 8,0 2,9 5,9 9,4 11,4 11 6 42 23 NE 1023,3 19 0 0,0
08.12.2018 01:00:00 8,0 2,7 5,8 9,5 11,4 24 13 57 31 N 1023,1 20 0 0,0
08.12.2018 00:00:00 9,4 1,5 6,6 9,4 11,4 24 13 58 31 N 1022,7 16 0 0,6
07.12.2018 23:00:00 10,7 3,7 7,4 9,4 11,4 13 7 63 34 SE 1021,3 60 0 0,4
07.12.2018 22:00:00 10,3 4,6 7,5 9,4 11,4 18 10 74 40 NNE 1019,9 2,9 0 5,4
07.12.2018 21:00:00 10,1 6,1 8,4 9,4 11,4 29 16 66 36 WNW 1019,3 1,5 0 3,9
07.12.2018 20:00:00 11,4 8,3 9,6 9,4 11,4 23 12 42 23 S 1017,7 19 0 1,2
07.12.2018 19:00:00 12,1 8,2 9,6 9,4 11,4 19 10 33 18 S 1017,6 11 0 0,4
07.12.2018 18:00:00 12,8 8,3 9,5 9,3 11,4 16 9 29 16 S 1017,3 13 0 0,0
07.12.2018 17:00:00 12,6 7,7 9,2 9,2 11,4 15 8 29 16 SSE 1016,7 19 0 0,0
07.12.2018 16:00:00 12,4 7,3 9,7 9,2 11,4 7 4 23 12 WSW 1016,6 19 35 0,0
07.12.2018 15:00:00 14,4 7,9 10,5 9,1 11,4 15 8 31 17 SSE 1016,9 19 32 0,0
07.12.2018 14:00:00 13,4 7,6 10,7 9,1 11,4 5 3 14 7 NNE 1018,6 18 44 0,0
07.12.2018 13:00:00 13,9 7,4 10,3 9,1 11,4 4 2 16 9 SSW 1019,7 17 60 0,0
07.12.2018 12:00:00 12,4 7,3 9,5 9,1 11,4 8 4 21 11 WSW 1021,3 19 60 0,0
07.12.2018 11:00:00 10,3 6,4 8,5 9,1 11,4 15 8 24 13 S 1021,7 17 60 0,0
07.12.2018 10:00:00 9,2 6,3 7,8 9,1 11,4 17 9 26 14 S 1022,4 17 38 0,0
07.12.2018 09:00:00 7,9 6,0 7,8 9,0 11,4 11 6 20 11 SSW 1023,5 18 0 0,0
07.12.2018 08:00:00 7,7 6,3 7,7 9,0 11,4 9 5 16 8 SSW 1024,1 16 0 0,0
07.12.2018 07:00:00 7,4 6,3 7,5 9,0 11,4 10 5 18 10 SSE 1024,5 14 0 0,0
07.12.2018 06:00:00 7,4 6,2 7,5 9,0 11,4 11 6 17 9 S 1024,5 16 0 0,0
07.12.2018 05:00:00 6,6 6,2 7,4 9,0 11,4 7 4 11 6 S 1025,1 11 0 0,0
07.12.2018 04:00:00 6,5 6,1 7,2 9,1 11,5 7 4 11 6 SE 1025,3 11 0 0,0
07.12.2018 03:00:00 6,5 6,1 6,8 9,1 11,4 9 5 14 8 SSE 1026,0 12 0 0,0
07.12.2018 02:00:00 6,1 6,0 6,4 9,1 11,4 4 2 11 6 SSE 1026,7 6 0 0,0
07.12.2018 01:00:00 5,6 5,5 6,0 9,1 11,5 7 4 14 8 SSE 1027,5 7 0 0,0
07.12.2018 00:00:00 5,4 5,3 6,1 9,1 11,4 9 5 11 6 SE 1027,5 6 0 0,0
06.12.2018 23:00:00 5,4 5,3 5,7 9,2 11,5 8 4 13 7 SE 1027,5 6 0 0,0
06.12.2018 22:00:00 4,8 4,7 5,4 9,2 11,4 6 3 8 4 S 1027,8 3,0 0 0,0
06.12.2018 21:00:00 4,9 4,8 5,5 9,2 11,4 3 2 10 5 SSW 1028,1 0,6 0 0,0
06.12.2018 20:00:00 5,1 5,0 5,4 9,2 11,4 8 4 10 6 S 1027,8 0,5 0 0,0
06.12.2018 19:00:00 5,9 5,6 5,8 9,2 11,4 5 3 7 4 S 1027,1 0,9 0 0,0
06.12.2018 18:00:00 6,2 5,6 6,2 9,2 11,5 4 2 9 5 SE 1026,4 0,3 0 0,0
06.12.2018 17:00:00 9,4 8,5 7,8 9,1 11,4 4 2 11 6 NW 1025,6 1,9 0 0,0
06.12.2018 16:00:00 10,6 8,5 9,5 9,1 11,4 3 2 11 6 WNW 1025,0 19 8 0,0
06.12.2018 15:00:00 12,4 8,1 10,9 9,0 11,4 3 2 12 7 SSE 1024,9 20 3 0,0
06.12.2018 14:00:00 12,0 9,0 10,4 9,0 11,4 10 6 20 11 SSE 1024,9 17 29 0,0
06.12.2018 13:00:00 10,5 9,1 9,8 9,0 11,4 13 7 23 13 S 1025,4 17 0 0,0
06.12.2018 12:00:00 10,1 8,9 9,1 9,0 11,4 14 7 26 14 S 1025,6 17 0 0,0
06.12.2018 11:00:00 9,2 8,7 8,0 9,0 11,4 15 8 27 15 S 1025,5 14 0 1,0
06.12.2018 10:00:00 8,1 7,5 7,7 9,0 11,4 22 12 31 17 S 1025,5 4,2 0 5,0
06.12.2018 09:00:00 7,8 7,2 7,6 9,0 11,4 15 8 24 13 SSW 1025,0 2,1 0 4,2
06.12.2018 08:00:00 7,8 6,9 7,5 9,0 11,4 11 6 22 12 SSW 1023,9 6 0 4,3
06.12.2018 07:00:00 7,7 6,6 7,5 9,0 11,4 13 7 35 19 S 1023,5 4,6 0 1,6
06.12.2018 06:00:00 7,9 6,5 7,5 9,0 11,4 16 8 29 16 SSW 1022,9 10 0 1,0
06.12.2018 05:00:00 8,0 6,8 7,4 9,0 11,4 10 5 20 11 S 1023,2 17 0 0,0
06.12.2018 04:00:00 7,7 6,5 7,0 9,0 11,4 11 6 21 11 SSW 1023,3 17 0 0,2
06.12.2018 03:00:00 6,6 6,2 6,8 9,1 11,4 8 4 15 8 SE 1023,8 6 0 0,6
06.12.2018 02:00:00 6,4 6,0 6,0 9,0 11,4 5 3 16 8 SW 1023,6 11 0 0,0
06.12.2018 01:00:00 5,5 5,2 5,4 9,1 11,4 5 3 12 6 NW 1024,0 10 0 0,0
06.12.2018 00:00:00 4,1 3,7 5,5 9,1 11,4 6 3 11 6 SE 1023,6 6 0 0,0

tt = temperature
td = dewpoint
tt 5cm = temperature 5cm
tt -20cm = temperature -20cm
tt -100cm = temperature -100cm
ff = wind speed
fx = gusts
dd = wind direction
ppp = reduced air pressure
vv = visibility
sd = sunshine duration
rr = precipitation

Next stations